Ruston, LA

4:44 AM CST on November 19, 2017 (GMT -0600)
Ruston Regional

Weather History for KRSN - February, 2013

Change the Weather History Date:

Thursday, February 14, 2013

  Actual Average Record
Temperature  
Mean Temperature 47 °F -  
Max Temperature 63 °F 63 °F 84 °F (1945)
Min Temperature 31 °F 37 °F 21 °F (1960)
Degree Days  
Heating Degree Days 18    
Moisture  
Dew Point 35 °F    
Average Humidity 75    
Maximum Humidity 100    
Minimum Humidity 25    
Precipitation  
Precipitation 0.00 in - - ()
Sea Level Pressure  
Sea Level Pressure 30.13 in    
Wind  
Wind Speed 1 mph (West)    
Max Wind Speed 7 mph    
Max Gust Speed -    
Visibility 9 miles    
Events      
Averages and records for this station are not official NWS values.
T = Trace of Precipitation, MM = Missing Value Source: NWS Daily Summary

Daily Weather History Graph

Daily Weather History Graph

Search for Another Location

Airport or City:

Trip Planner

Search our weather history database for the weather conditions in past years. The results will help you decide how hot, cold, wet, or windy it might be!

Date:

Astronomy

Feb. 14, 2013 Rise Set
Actual Time 6:53 AM CST 5:55 PM CST
Civil Twilight 6:28 AM CST 6:20 PM CST
Nautical Twilight 5:59 AM CST 6:49 PM CST
Astronomical Twilight 5:31 AM CST 7:18 PM CST
Moon 9:15 AM CST (2/14) 10:38 PM CST (2/14)
Length of Visible Light 11h 52m
Length of Day
11h 01m
Waxing Crescent, 22% of the Moon is Illuminated
Feb 14
Waxing Crescent
Feb 17
First Quarter
Feb 25
Full
Mar 4
Last Quarter
Mar 11
New

Hourly Weather History & Observations

Time (CST) Temp. Windchill Dew Point Humidity Pressure Visibility Wind Dir Wind Speed Gust Speed Precip Events Conditions
12:15 AM 33.4 °F - 33.4 °F 100% 30.12 in 7.0 mi Calm Calm - N/A   Clear
12:35 AM 33.4 °F - 33.4 °F 100% 30.13 in 10.0 mi Calm Calm - N/A   Clear
12:55 AM 33.1 °F - 33.1 °F 100% 30.13 in 10.0 mi Calm Calm - N/A   Clear
1:15 AM 32.4 °F - 32.4 °F 100% 30.13 in 7.0 mi Calm Calm - N/A   Clear
1:35 AM 32.7 °F - 32.7 °F 100% 30.13 in 7.0 mi Calm Calm - N/A   Clear
1:55 AM 32.0 °F - 32.0 °F 100% 30.12 in 7.0 mi Calm Calm - N/A   Clear
2:15 AM 32.0 °F - 32.0 °F 100% 30.12 in 7.0 mi Calm Calm - N/A   Clear
2:35 AM 32.0 °F - 32.0 °F 100% 30.12 in 10.0 mi Calm Calm - N/A   Clear
2:55 AM 31.8 °F - 31.8 °F 100% 30.12 in 10.0 mi Calm Calm - N/A   Clear
3:15 AM 31.8 °F - 31.8 °F 100% 30.12 in 10.0 mi Calm Calm - N/A   Clear
3:55 AM 32.2 °F - 32.2 °F 100% 30.11 in 10.0 mi Calm Calm - N/A   Clear
4:15 AM 32.0 °F - 32.0 °F 100% 30.12 in 7.0 mi Calm Calm - N/A   Clear
4:35 AM 32.9 °F - 32.9 °F 100% 30.12 in 10.0 mi Calm Calm - N/A   Clear
4:55 AM 31.8 °F - 31.8 °F 100% 30.13 in 5.0 mi Calm Calm - N/A   Clear
5:15 AM 31.8 °F - 31.8 °F 100% 30.13 in 7.0 mi Calm Calm - N/A   Clear
5:35 AM 32.0 °F - 32.0 °F 100% 30.14 in 10.0 mi Calm Calm - N/A   Clear
5:55 AM 31.6 °F - 31.6 °F 100% 30.15 in 5.0 mi Calm Calm - N/A   Clear
6:15 AM 32.0 °F - 32.0 °F 100% 30.15 in 10.0 mi Calm Calm - N/A   Clear
6:35 AM 32.0 °F - 32.0 °F 100% 30.15 in 10.0 mi Calm Calm - N/A   Clear
6:55 AM 33.1 °F - 33.1 °F 100% 30.16 in 7.0 mi Calm Calm - N/A   Clear
7:15 AM 34.0 °F - 34.0 °F 100% 30.16 in 7.0 mi Calm Calm - N/A   Clear
7:35 AM 35.6 °F - 35.6 °F 100% 30.16 in 7.0 mi Calm Calm - N/A   Clear
7:55 AM 37.0 °F 34.5 °F 37.0 °F 100% 30.17 in 10.0 mi SW 3.5 mph - N/A   Clear
8:15 AM 38.8 °F - 38.8 °F 100% 30.17 in 10.0 mi Calm Calm - N/A   Clear
8:35 AM 41.0 °F - 41.0 °F 100% 30.18 in 10.0 mi Calm Calm - N/A   Clear
8:55 AM 42.8 °F 41.1 °F 40.3 °F 91% 30.18 in 10.0 mi West 3.5 mph - N/A   Clear
9:15 AM 45.3 °F 44.0 °F 40.8 °F 84% 30.19 in 10.0 mi WSW 3.5 mph - N/A   Clear
9:35 AM 47.8 °F - 39.4 °F 72% 30.19 in 10.0 mi NW 3.5 mph - N/A   Clear
9:55 AM 50.4 °F - 38.3 °F 63% 30.18 in 10.0 mi Calm Calm - N/A   Clear
10:15 AM 52.7 °F - 35.1 °F 51% 30.18 in 10.0 mi West 5.8 mph - N/A   Clear
10:35 AM 53.6 °F - 35.4 °F 50% 30.17 in 10.0 mi WSW 5.8 mph - N/A   Clear
10:55 AM 54.9 °F - 33.3 °F 44% 30.17 in 10.0 mi NW 4.6 mph - N/A   Clear
11:15 AM 56.1 °F - 34.2 °F 44% 30.17 in 10.0 mi North 4.6 mph - N/A   Clear
11:35 AM 56.7 °F - 33.4 °F 42% 30.16 in 10.0 mi Calm Calm - N/A   Clear
11:55 AM 57.6 °F - 33.3 °F 40% 30.16 in 10.0 mi West 3.5 mph - N/A   Clear
12:15 PM 59.0 °F - 34.0 °F 39% 30.15 in 10.0 mi WNW 3.5 mph - N/A   Clear
12:35 PM 59.2 °F - 32.0 °F 36% 30.14 in 10.0 mi NNW 5.8 mph - N/A   Clear
12:55 PM 59.9 °F - 32.4 °F 35% 30.13 in 10.0 mi Calm Calm - N/A   Clear
1:15 PM 60.4 °F - 29.5 °F 31% 30.13 in 10.0 mi NW 6.9 mph - N/A   Clear
1:35 PM 61.0 °F - 29.5 °F 30% 30.12 in 10.0 mi NW 4.6 mph - N/A   Clear
1:55 PM 61.7 °F - 27.9 °F 28% 30.11 in 10.0 mi NW 3.5 mph - N/A   Clear
2:15 PM 61.9 °F - 28.4 °F 28% 30.10 in 10.0 mi Calm Calm - N/A   Clear
2:35 PM 62.4 °F - 27.7 °F 27% 30.09 in 10.0 mi NW 4.6 mph - N/A   Clear
2:55 PM 62.8 °F - 26.8 °F 26% 30.09 in 10.0 mi NW 5.8 mph - N/A   Clear
3:15 PM 63.0 °F - 26.8 °F 25% 30.09 in 10.0 mi West 5.8 mph - N/A   Clear
3:35 PM 63.3 °F - 27.9 °F 26% 30.09 in 10.0 mi WNW 4.6 mph - N/A   Clear
3:55 PM 63.0 °F - 28.2 °F 27% 30.10 in 10.0 mi Calm Calm - N/A   Clear
4:15 PM 63.0 °F - 27.3 °F 26% 30.09 in 10.0 mi WNW 4.6 mph - N/A   Clear
4:35 PM 62.2 °F - 28.4 °F 28% 30.09 in 10.0 mi West 3.5 mph - N/A   Clear
4:55 PM 61.9 °F - 30.0 °F 30% 30.10 in 10.0 mi Calm Calm - N/A   Clear
5:15 PM 59.4 °F - 33.1 °F 37% 30.10 in 10.0 mi Calm Calm - N/A   Clear
5:35 PM 54.0 °F - 39.7 °F 59% 30.10 in 10.0 mi Calm Calm - N/A   Clear
5:55 PM 51.1 °F - 40.8 °F 68% 30.10 in 10.0 mi Calm Calm - N/A   Clear
6:15 PM 49.5 °F - 40.5 °F 71% 30.11 in 10.0 mi Calm Calm - N/A   Clear
6:35 PM 47.5 °F - 40.1 °F 76% 30.11 in 10.0 mi South 3.5 mph - N/A   Clear
6:55 PM 45.5 °F - 40.1 °F 81% 30.11 in 10.0 mi Calm Calm - N/A   Clear
7:15 PM 44.1 °F - 41.0 °F 89% 30.11 in 10.0 mi Calm Calm - N/A   Clear
7:35 PM 43.2 °F - 40.5 °F 90% 30.12 in 10.0 mi Calm Calm - N/A   Clear
7:55 PM 42.8 °F - 41.0 °F 93% 30.12 in 10.0 mi Calm Calm - N/A   Clear
8:15 PM 41.9 °F - 41.7 °F 99% 30.12 in 10.0 mi Calm Calm - N/A   Clear
8:35 PM 41.5 °F - 40.5 °F 96% 30.13 in 10.0 mi Calm Calm - N/A   Clear
9:15 PM 40.5 °F - 40.5 °F 100% 30.13 in 10.0 mi Calm Calm - N/A   Clear
9:35 PM 39.4 °F - 39.4 °F 100% 30.13 in 10.0 mi Calm Calm - N/A   Clear
9:55 PM 39.4 °F - 39.4 °F 100% 30.14 in 10.0 mi Calm Calm - N/A   Clear
10:15 PM 38.5 °F 36.1 °F 38.5 °F 100% 30.14 in 10.0 mi South 3.5 mph - N/A   Clear
10:35 PM 38.8 °F 36.5 °F 38.8 °F 100% 30.14 in 10.0 mi South 3.5 mph - N/A   Clear
10:55 PM 38.7 °F - 38.7 °F 100% 30.13 in 10.0 mi Calm Calm - N/A   Clear
11:15 PM 40.5 °F - 39.6 °F 97% 30.13 in 10.0 mi Calm Calm - N/A   Clear
11:35 PM 38.7 °F - 38.7 °F 100% 30.13 in 10.0 mi Calm Calm - N/A   Clear
11:55 PM 38.8 °F - 38.3 °F 98% 30.13 in 10.0 mi Calm Calm - N/A   Clear